{"data":{"norad_id":55676,"intl_designator":"2023-021BA","name":"STARLINK-5300","alt_names":[],"object_type":"PAYLOAD","status":"ACTIVE","operator":null,"country":"US","launch_date":"2023-02-17","launch_site_code":"AFWTR","launch_vehicle":null,"mission":null,"orbit_class":"UNKNOWN","rcs_meters":null,"size_class":null,"mass_kg":null,"dimensions":null,"purposes":["comms"],"wikipedia_slug":null,"has_3d_model":false,"image_url":null,"decayed_at":null,"tle_current":{"epoch":"2026-09-20T12:58:56.129952Z","epoch_age_seconds":99585,"freshness":"FRESH","line1":"1 55676U 23021BA  26263.54092743  .00001924  00000+0  16900-3 0  9994","line2":"2 55676  70.0022  13.2035 0003138 269.7044  90.3755 14.98337681198965","mean_motion":14.98337681,"eccentricity":0.0003138,"inclination_deg":70.0022,"raan_deg":13.2035,"arg_perigee_deg":269.7044,"mean_anomaly_deg":90.3755,"bstar":0.000169,"rev_number":19896,"period_min":96.106506447795,"perigee_km":569.85117511143,"apogee_km":574.21310126256,"semimajor_km":6950.169138187,"source":"CELESTRAK","updated_at":"2026-09-21T09:00:33.310954Z"}}}